Dewpoint
44 49 50 52 54 56 57 57 56 57 57 57 56 56 56 58 57 57 56 55 53 53 53 51 49 48 48 49 49 49 46 45 43 39 40 42 43 42 42 42 45 46 48
45 48 51 52 53 55 56 56 56 55 57 57 57 56 56 57 57 57 56 55 55 53 53 53 52 51 52 51 51 50 49 47 46 43 44 44 43 43 44 44 43 44 43
44 47 49 51 53 54 55 56 56 55 56 57 57 56 57 56 55 55 55 54 54 53 52 53 53 53 53 53 53 53 50 49 48 48 47 46 44 46 45 46 45 46 46
43 45 48 50 53 54 55 55 55 55 56 56 55 54 53 52 54 54 55 55 54 52 53 53 53 54 54 54 54 54 53 52 49 50 49 50 49 47 46 46 47 47 46
41 44 47 48 51 53 54 55 55 55 56 55 55 55 52 53 54 55 55 55 51 51 50 51 53 53 54 54 55 54 55 53 52 50 50 50 49 50 49 46 46 47 47
41 43 46 46 49 53 53 54 54 55 56 55 55 54 53 53 52 53 53 54 52 50 50 52 53 54 54 53 54 55 55 55 53 53 52 51 49 47 48 48 48 47 48
41 43 45 45 48 52 53 53 53 54 55 55 55 54 53 54 52 52 51 53 53 53 53 53 54 54 55 54 55 55 56 56 55 55 55 55 52 53 52 51 51 50 50
41 43 44 45 46 51 52 53 52 52 55 55 55 54 53 53 52 52 51 50 51 51 51 53 52 53 54 55 56 56 58 57 57 56 56 55 54 53 52 53 52 51 51
40 43 44 46 45 49 51 52 51 52 53 55 55 55 54 52 51 52 52 51 49 49 50 51 53 52 54 54 55 57 57 56 56 56 57 56 56 57 58 57 55 53 49
38 41 43 47 47 47 49 52 51 50 52 53 55 55 55 55 53 52 53 52 52 51 51 52 53 54 55 55 56 55 55 54 55 56 56 57 58 57 57 56 55 54 52
37 40 42 45 48 48 48 51 50 49 50 52 53 54 54 54 53 53 52 53 54 53 52 53 54 54 54 54 54 54 54 54 54 55 56 56 56 54 53 54 54 53 52
38 39 40 44 47 49 48 49 50 49 49 51 52 53 53 54 54 53 53 53 53 53 53 52 51 52 53 53 53 53 53 53 53 54 56 54 53 52 53 53 53 52 51
36 40 40 42 46 48 49 49 50 49 49 49 51 53 53 53 54 54 53 54 53 53 52 52 52 52 52 52 53 53 54 54 55 56 54 52 52 54 53 53 52 51 51
30 36 39 42 44 47 49 49 50 49 49 49 49 51 52 53 53 54 54 54 54 54 53 53 53 53 52 52 52 52 53 54 55 55 54 54 55 54 53 52 52 50 48
25 28 36 41 44 46 48 49 50 51 50 49 49 50 52 52 52 53 53 53 54 53 52 52 52 52 52 52 52 53 53 55 56 46 41 38 38 38 40 46 45 44 43
23 29 31 37 42 44 47 48 49 51 52 51 50 50 51 51 52 52 53 53 52 52 52 51 51 51 49 46 50 53 53 48 44 38 35 33 33 32 32 32 32 33 35
25 27 29 30 35 41 45 47 49 50 51 51 50 50 50 50 51 51 51 51 51 53 51 48 45 41 39 40 41 41 38 36 34 33 32 31 31 31 31 30 30 30 30
29 30 30 30 31 34 42 46 48 49 51 51 51 50 51 50 50 51 51 52 49 45 41 39 37 35 34 34 34 33 32 31 31 31 31 29 29 30 30 30 29 28 29
32 30 30 30 32 34 40 45 47 49 50 51 51 51 51 51 52 49 45 42 39 36 35 34 33 32 32 32 32 31 29 28 27 28 28 27 27 28 30 29 28 28 26
42 38 38 34 36 41 42 46 48 49 49 50 51 52 50 48 44 41 38 36 34 32 31 30 30 30 29 30 28 28 27 25 24 25 26 27 26 25 26 26 26 25 25
44 44 42 40 42 44 46 47 50 49 48 46 44 43 42 40 38 35 34 32 30 29 29 28 29 30 30 30 28 28 27 26 25 24 24 25 25 25 25 25 27 25 22
46 45 45 46 48 49 49 46 43 42 41 40 38 37 36 35 34 32 32 30 29 28 27 27 26 27 28 29 29 29 29 28 28 27 26 22 21 22 23 23 20 19 20
46 47 47 47 46 45 43 39 38 37 36 35 34 34 33 33 32 31 30 29 28 27 27 26 25 25 26 26 25 25 24 25 23 22 22 22 22 22 23 20 20 21 22
42 42 42 41 41 40 38 37 36 35 33 32 31 31 30 29 29 30 29 29 28 27 26 26 26 27 27 27 26 26 25 23 24 24 22 22 22 23 23 20 20 20 19
37 37 37 37 37 36 35 35 34 33 31 30 29 28 27 26 26 26 26 27 29 30 29 29 27 24 22 22 21 21 20 19 20 23 20 19 17 16 13 12 14 14 13
33 35 35 36 37 37 36 35 35 32 30 29 28 27 26 25 24 24 24 27 27 27 26 24 23 22 20 18 17 16 15 15 16 17 15 15 14 11 8 8 8 6 6
Wind_Speed
10 12 11 10 9 9 10 11 10 6 7 10 13 14 15 21 22 20 21 18 15 17 14 16 18 14 15 12 12 9 10 7 8 7 6 8 8 10 11 12 14 16 17
14 14 14 12 12 12 11 11 12 13 9 9 12 12 18 17 18 17 16 14 15 17 17 17 13 12 12 13 12 12 11 8 10 9 11 8 10 14 16 14 15 15 15
17 17 16 16 14 14 15 12 13 13 12 12 15 18 17 16 19 18 16 16 16 18 17 14 13 13 14 14 16 14 13 11 13 13 7 6 8 6 14 17 15 15 14
17 18 18 17 18 16 16 15 12 13 15 17 17 21 24 25 20 21 21 20 22 18 16 15 15 17 15 15 14 10 13 14 12 9 13 11 10 5 4 8 16 15 16
19 19 19 18 19 17 16 19 17 14 14 17 17 19 20 16 15 16 17 14 16 18 21 18 17 18 11 12 14 16 15 11 11 13 12 10 12 14 14 16 15 15 15
19 19 18 18 19 19 16 18 20 19 16 18 17 20 22 20 19 17 15 13 14 19 21 22 18 13 14 13 14 14 13 13 14 13 12 13 12 12 15 15 17 16 16
20 20 21 21 21 23 20 19 20 21 20 17 18 21 20 19 25 23 21 18 15 17 21 22 17 16 15 14 13 14 14 14 18 15 13 14 16 16 17 17 19 20 17
21 22 22 22 23 25 25 23 22 22 23 22 20 22 21 13 17 23 23 23 21 20 18 20 17 19 16 16 17 15 13 15 17 17 16 16 16 17 19 18 19 21 15
22 24 23 23 23 24 26 26 25 24 24 25 23 21 20 21 20 22 23 25 25 22 23 21 21 20 19 19 17 14 15 18 18 17 17 18 16 16 16 16 17 18 23
20 24 24 24 22 22 22 23 23 25 25 25 24 23 22 22 23 21 26 23 24 24 21 23 21 18 19 19 18 18 19 19 19 16 18 20 17 15 14 16 14 17 23
20 23 24 23 22 22 23 23 23 23 24 26 25 25 22 22 21 19 21 23 22 23 24 23 23 22 22 21 22 22 21 22 21 21 22 22 19 16 20 19 20 21 22
15 20 23 23 23 24 24 24 24 24 24 25 26 27 26 25 25 24 21 19 20 20 21 21 22 23 24 24 25 25 23 24 25 25 22 23 21 26 24 19 21 21 20
11 16 19 23 25 25 25 25 25 25 24 25 25 24 25 26 26 25 23 22 22 21 22 23 24 24 23 24 24 24 24 25 23 20 21 26 27 27 18 17 19 20 19
6 13 17 21 23 25 26 26 26 25 25 25 26 25 25 25 25 24 24 23 23 23 23 23 23 23 23 23 23 24 23 21 21 24 26 25 21 18 18 17 19 15 14
8 11 17 18 21 25 26 25 26 26 26 26 25 24 23 23 22 22 22 22 22 23 22 22 21 20 20 18 20 19 19 19 16 4 10 16 18 21 15 2 3 4 7
15 10 13 16 19 21 23 24 25 25 26 26 25 24 23 23 22 21 21 19 19 18 18 18 20 17 6 10 8 4 4 5 8 9 13 14 17 21 24 25 27 19 6
22 18 15 13 16 19 21 22 22 23 26 26 26 24 24 24 22 22 20 19 18 13 9 11 11 12 13 16 17 16 14 15 15 14 13 14 13 14 14 19 21 23 21
19 11 13 14 16 15 19 20 21 22 23 23 23 23 22 22 20 19 14 14 14 15 14 16 17 18 17 18 22 23 20 21 20 18 16 17 17 16 13 14 14 14 12
20 22 21 15 18 15 17 19 20 20 20 21 20 19 19 18 14 18 17 16 21 21 20 18 19 20 18 18 18 21 20 22 22 19 17 15 14 15 13 12 10 9 7
21 21 18 17 13 9 13 19 21 21 18 12 9 12 17 19 19 20 20 20 22 22 21 22 21 21 21 22 22 19 17 19 16 14 14 18 14 13 14 9 7 6 7
23 21 16 10 7 8 11 14 13 17 16 22 21 20 20 22 21 22 20 22 23 24 23 25 21 22 20 21 23 20 16 13 13 11 11 11 12 10 10 10 9 8 10
18 15 9 2 2 8 19 17 20 18 23 25 25 25 24 20 21 24 23 23 23 25 22 23 20 19 19 22 25 24 20 14 13 12 10 8 7 7 8 8 9 8 9
12 8 7 9 11 15 21 24 19 22 26 29 26 26 27 25 21 21 20 21 20 20 19 19 18 14 14 16 21 21 19 16 13 10 7 4 3 2 8 6 4 7 10
9 7 8 12 14 15 18 24 21 23 29 30 28 26 28 27 23 22 19 17 18 17 16 19 16 14 13 13 10 10 10 9 9 6 7 6 4 5 5 7 8 11 11
9 6 8 13 16 17 20 21 22 25 28 27 25 24 27 28 26 24 21 19 18 13 18 16 16 14 17 17 17 15 12 10 8 3 7 9 11 11 12 12 12 12 13
14 9 9 11 14 17 18 19 20 25 28 27 23 20 25 26 21 27 30 33 32 34 32 28 23 20 20 17 17 17 16 14 10 7 10 10 11 11 12 13 13 14 15
Wind_Direction
173 153 167 161 161 154 159 160 147 132 121 108 96 94 94 125 126 134 125 130 149 156 152 156 161 152 146 146 128 141 161 178 156 162 170 203 211 217 211 214 220 215 211
168 167 165 168 172 163 162 170 161 158 146 127 115 95 101 98 113 124 137 140 157 161 148 149 145 154 129 140 158 170 157 183 182 182 189 204 205 219 220 222 217 222 225
184 176 179 170 178 175 164 175 162 165 153 128 115 118 104 110 126 141 156 177 175 176 149 148 163 164 167 178 177 185 170 194 195 233 239 234 244 202 204 213 232 222 222
186 178 181 173 178 183 166 164 165 176 158 163 153 149 149 156 162 164 165 176 182 165 155 181 186 186 193 183 170 185 200 226 206 204 243 265 279 279 261 214 213 230 227
187 180 182 174 175 179 177 165 169 174 170 170 172 165 162 162 153 158 169 180 170 162 185 219 199 192 190 199 167 206 210 222 238 235 195 232 250 254 260 270 255 217 231
183 180 177 171 173 165 181 172 170 176 181 185 181 173 170 174 168 171 170 173 178 188 199 217 203 201 204 203 208 213 208 220 235 242 253 246 251 256 246 255 267 266 240
183 184 178 178 174 171 178 182 177 176 183 187 182 184 176 178 179 178 182 179 182 186 201 211 196 202 207 210 214 213 218 220 236 234 241 249 250 252 265 268 265 263 265
185 192 184 182 181 175 178 182 185 179 179 187 187 185 192 177 176 188 194 194 196 200 198 206 227 213 208 215 223 220 223 233 237 239 239 248 254 262 262 259 265 268 242
189 194 189 187 185 184 183 183 182 184 183 182 189 196 192 196 203 192 193 201 209 213 204 212 206 225 220 225 228 228 232 232 236 234 244 251 253 255 261 261 256 257 266
196 194 194 189 187 186 185 186 187 185 184 187 184 193 196 204 202 204 198 198 202 212 213 214 223 227 228 227 229 230 230 236 241 243 242 241 241 249 254 257 248 243 251
196 195 197 186 190 183 183 188 192 191 185 188 190 190 193 207 202 209 201 202 201 200 215 207 214 220 225 225 228 232 236 239 244 241 241 243 239 249 259 251 242 244 240
196 200 196 189 192 188 187 190 194 196 195 189 191 194 194 194 206 209 207 206 210 208 207 217 218 220 227 229 232 237 239 242 246 244 237 244 253 262 259 247 240 239 234
200 203 203 199 196 196 193 190 194 200 198 196 194 196 197 197 200 206 211 206 212 217 218 221 224 230 234 238 239 242 247 249 251 249 250 259 270 266 244 235 240 234 232
230 210 209 208 203 200 199 198 194 196 199 199 200 197 201 204 203 203 206 211 213 217 223 227 231 234 240 241 244 248 246 244 242 243 252 264 265 252 242 242 241 235 228
270 248 213 209 207 204 202 202 200 194 197 200 202 200 201 205 209 208 208 210 212 220 224 229 235 241 245 246 250 251 252 250 246 86 61 50 50 51 47 348 327 230 228
272 253 236 214 210 210 207 202 203 196 191 199 202 200 196 201 205 207 207 209 214 217 226 232 233 240 54 11 18 326 308 76 103 91 69 58 53 57 61 66 63 57 67
271 241 242 235 229 220 209 206 203 198 195 199 199 199 197 201 200 202 205 208 209 203 99 77 74 65 51 62 73 83 79 79 77 81 83 74 57 55 60 58 62 60 58
300 284 275 254 260 233 214 206 197 197 196 199 199 196 195 198 200 199 186 112 94 92 85 77 76 75 59 70 83 82 82 79 71 67 66 72 61 55 61 67 58 52 47
294 276 280 283 285 214 215 198 191 194 194 196 191 190 189 188 139 114 107 103 97 86 83 82 81 79 70 73 83 90 86 80 73 67 67 66 55 51 52 59 58 54 61
315 308 299 288 260 214 201 196 183 172 184 194 129 107 101 105 105 104 102 99 99 100 95 87 82 83 79 76 81 84 87 84 81 74 68 58 65 43 37 44 32 26 12
309 308 294 279 234 181 179 186 133 106 102 99 94 91 93 99 102 101 100 103 101 97 92 88 80 76 75 75 77 78 83 89 88 82 71 59 48 39 35 16 33 25 340
316 311 309 335 106 105 106 108 98 103 102 99 98 94 92 90 96 101 102 100 101 99 95 91 81 73 72 72 70 70 70 76 79 72 68 60 32 27 27 50 48 14 334
338 8 52 68 85 104 116 112 111 107 101 95 91 91 92 91 91 92 96 100 100 101 104 97 93 87 85 83 78 75 72 68 76 78 83 72 16 27 92 51 24 338 15
11 32 81 87 89 97 107 110 114 111 106 102 100 98 92 90 83 83 80 85 95 103 106 97 100 94 79 70 78 83 84 82 85 117 72 54 48 57 38 21 19 12 15
35 38 88 98 99 104 105 107 112 108 102 102 102 100 97 90 85 77 78 74 68 90 94 96 97 95 84 75 68 66 60 50 33 11 40 33 24 15 8 4 9 7 1
32 45 67 89 102 102 104 114 115 113 110 104 100 102 102 96 98 96 85 71 76 76 79 84 88 80 81 78 77 69 57 34 4 49 36 32 20 10 2 1 358 353 351